Location: ?
(35.4064°N, 139.3593°E)
Time: 09:21:19
(UTC+00:00)

Cosmos 1975 - Pass Details

Date: 18 April 2024
Orbit: 514 x 533 km, 82.5° (Epoch: 20 May)

Event Time Altitude Azimuth Distance (km) Brightness Sun altitude
Rises 18:04:29 0° 350° (N) 2,646 6.6 -23.2°
Reaches altitude 10° 18:06:38 10° 348° (NNW) 1,758 5.6 -22.9°
Enters shadow 18:09:34 48° 327° (NNW) 688 3.2 -22.4°
